Find Starlink 31045

NORAD ID: 58541 Int'l Des: 2023-192 Owner: SPXS Country: US Constellation: starlink operational
LEOCIRCULAR

現在のビュー

3D地球を読み込み中...

About Starlink 31045

Starlink 31045 (NORAD 58541) is a starlink constellation satellite (v2 mini) launched Dec 8, 2023 by SPXS of US. It operates in LEO, CIRCULAR orbit with a mass of 730.00 kg.

Starlink 31045について

説明を読み込み中...

次回通過

Passes for default location (London). Set your location on the main map for personalized predictions.

高度履歴

Loading altitude history...

軌道要素

1 58541U 23192L 26170.77626823 -.00001565 00000-0 -40722-4 0 9995
2 58541 53.1623 25.3991 0001086 137.1938 222.9147 15.30195710140522
Epoch: Jun 19, 2026 • Age: 36 hours

現在のステータス

高度 475.9 km
速度 7.63 km/s
衛星直下点 8.87°N, 14.62°E
打ち上げ日 Dec 8, 2023
運用期間 2.5 years
タイプ internet

技術仕様

分類 Payload
質量 730.00 kg
乾燥質量 700.00 kg
総質量 730.00 kg
長さ 0.30 m
直径 4.10 m
スパン 29.00 m
形状 Box + pan
製造者 SPXS
バスタイプ Starlink V2M
フェーズステータス In Orbit
所有者/国 SPXS/US

Most Searched